North Vernon, Indiana, United States (47265)
Lat: 39.01N, Lon: 85.62W
Wx Zone: INZ072
Local Info
Past Weather Observations for Tuesday, July 22, 2014

NOTE: This archive is for the closest National Weather Service station to North Vernon. Information may differ from the station used for current weather conditions.

Click here for Long-term Archive

Time Weather Temperature Dewpoint Humidity Pressure Winds Precip Visibility
23:53
Clear
73°F / 23°C 68°F / 20°C 83% 30.04 in
(1017 mb)
SSE 3.5 mph
(SSE 6 kph)
- 8SM
22:53
Partly Cloudy
75°F / 24°C 68°F / 20°C 78% 30.04 in
(1017 mb)
S 6.9 mph
(S 11 kph)
- 9SM
21:53
Clear
75°F / 24°C 68°F / 20°C 78% 30.04 in
(1017 mb)
S 5.8 mph
(S 9 kph)
- 8SM
20:53
Clear
79°F / 26°C 68°F / 20°C 70% 30.04 in
(1017 mb)
SSW 4.6 mph
(SSW 7 kph)
- 9SM
19:53
Clear
81°F / 27°C 70°F / 21°C 70% 30.04 in
(1017 mb)
W 5.8 mph
(W 9 kph)
- 10SM
18:53
Clear
84°F / 29°C 70°F / 21°C 62% 30.04 in
(1017 mb)
SW 5.8 mph
(SW 9 kph)
- 10SM
17:53
Clear
88°F / 31°C 66°F / 19°C 49% 30.04 in
(1017 mb)
SW 9.2 mph
(SW 15 kph)
- 10SM
16:53
Clear
90°F / 32°C 66°F / 19°C 46% 30.04 in
(1017 mb)
SW 9.2 mph
(SW 15 kph)
- 10SM
15:53
Partly Cloudy
90°F / 32°C 66°F / 19°C 46% 30.06 in
(1018 mb)
SSW 10.4 mph
(SSW 17 kph)
- 10SM
14:53
Clear
90°F / 32°C 64°F / 18°C 43% 30.06 in
(1018 mb)
SW 10.4 mph
(SW 17 kph)
- 10SM
13:53
Partly Cloudy
90°F / 32°C 66°F / 19°C 46% 30.06 in
(1018 mb)
SSE 10.4 mph
(SSE 17 kph)
- 10SM
12:53
Partly Cloudy
86°F / 30°C 64°F / 18°C 49% 30.09 in
(1019 mb)
SSW 11.5 mph
(SSW 19 kph)
- 10SM
11:53
Partly Cloudy
88°F / 31°C 66°F / 19°C 49% 30.09 in
(1019 mb)
SW 10.4 mph
(SW 17 kph)
- 10SM
10:53
Clear
84°F / 29°C 66°F / 19°C 55% 30.09 in
(1019 mb)
SW 4.6 mph
(SW 7 kph)
- 10SM
09:53
Clear
82°F / 28°C 70°F / 21°C 66% 30.12 in
(1020 mb)
SW 5.8 mph
(SW 9 kph)
- 10SM
08:53
Clear
79°F / 26°C 70°F / 21°C 74% 30.12 in
(1020 mb)
SSE 4.6 mph
(SSE 7 kph)
- 9SM
07:53
Clear
73°F / 23°C 66°F / 19°C 78% 30.12 in
(1020 mb)
Calm - 7SM
06:53
Clear
Hazy
68°F / 20°C 63°F / 17°C 83% 30.12 in
(1020 mb)
E 3.5 mph
(E 6 kph)
- 4SM
05:53
Clear
Fog And Mist
63°F / 17°C 59°F / 15°C 88% 30.12 in
(1020 mb)
Calm - 4SM
04:53
Clear
Fog And Mist
63°F / 17°C 59°F / 15°C 88% 30.12 in
(1020 mb)
Calm - 5SM
03:53
Clear
Fog And Mist
64°F / 18°C 61°F / 16°C 88% 30.09 in
(1019 mb)
Calm - 5SM
02:53
Clear
Fog And Mist
64°F / 18°C 61°F / 16°C 88% 30.09 in
(1019 mb)
Calm - 6SM
01:53
Clear
Fog And Mist
64°F / 18°C 61°F / 16°C 88% 30.09 in
(1019 mb)
NE 3.5 mph
(NE 6 kph)
- 5SM
00:53
Clear
Fog And Mist
66°F / 19°C 63°F / 17°C 88% 30.09 in
(1019 mb)
E 3.5 mph
(E 6 kph)
- 5SM
Time Weather Temperature Dewpoint Humidity Pressure Winds Precip Visibility


Weather for websites

WeatherForYou.com, LLC is not responsible for any damages or problems caused by this service. Current weather conditions are obtained from the closest station including government and personal stations which may have varying degrees of accuracy. Weather forecasts are derived from the NOAA NDFD. Like all things, this site belongs to Jesus Christ... He just trusts me to maintain it. If you have any questions or comments email webmaster@weatherforyou.com

Copyright © 2014, WeatherForYou.com LLC. All rights reserved.